FW2417 Weather Reports


Display with metric or nautical units.
time (UTC)temp
F
wind
direction
speed
MPH
gust
MPH
rain 1hr
in
rain 24hr
in
rain mn
in
humidity
%
barometer
mb
20260507011600 58 225 0.0 4.0 0.00 0.00 0.00 81 1010.7
20260507010043 58 207 0.0 3.0 0.00 0.00 0.00 81 1010.9
20260507004546 59 221 0.0 3.0 0.00 0.00 0.00 80 1011.0
20260507003037 59 212 0.0 4.0 0.00 0.00 0.00 80 1011.1
20260507001544 59 236 0.0 3.0 0.00 0.00 0.00 79 1011.1
20260507000117 59 243 0.0 4.0 0.00 0.00 0.00 78 1011.2
20260506234615 60 208 0.0 5.0 0.00 0.00 0.00 77 1011.2
20260506233116 60 215 2.0 10.0 0.00 0.00 0.00 76 1011.2
20260506231616 60 236 1.0 9.0 0.00 0.00 0.00 74 1011.3
20260506230113 60 205 0.0 4.0 0.00 0.00 0.00 73 1011.4
20260506224612 60 245 0.0 4.0 0.00 0.00 0.00 73 1011.4
20260506223127 61 229 0.0 8.0 0.00 0.00 0.00 74 1011.2
20260506221604 61 217 1.0 5.0 0.00 0.00 0.00 72 1011.4
20260506220051 61 227 0.0 4.0 0.00 0.00 0.00 70 1011.3
20260506214540 62 228 1.0 8.0 0.00 0.00 0.00 68 1011.3
20260506213005 62 231 1.0 9.0 0.00 0.00 0.00 67 1011.3
20260506211501 63 249 1.0 10.0 0.00 0.00 0.00 66 1011.2
20260506210137 63 232 1.0 9.0 0.00 0.00 0.00 63 1011.0
20260506204606 64 248 1.0 9.0 0.00 0.00 0.00 61 1010.7
20260506203104 65 248 1.0 11.0 0.00 0.00 0.00 58 1010.6
20260506201602 66 252 2.0 9.0 0.00 0.00 0.00 55 1010.4
20260506200137 66 240 1.0 8.0 0.00 0.00 0.00 54 1010.2
20260506194604 67 233 1.0 8.0 0.00 0.00 0.00 52 1010.0
20260506193051 68 214 2.0 8.0 0.00 0.00 0.00 49 1009.8
20260506191550 69 304 2.0 10.0 0.00 0.00 0.00 46 1009.6
20260506190040 71 245 1.0 11.0 0.00 0.00 0.00 44 1009.4
20260506184540 73 238 2.0 10.0 0.00 0.00 0.00 40 1009.3
20260506183009 75 240 0.0 3.0 0.00 0.00 0.00 33 1009.1
20260506181618 77 240 0.0 1.0 0.00 0.00 0.00 30 1008.9
20260506180108 77 242 0.0 4.0 0.00 0.00 0.00 30 1009.1
20260506174609 77 18 0.0 5.0 0.00 0.00 0.00 30 1009.2
20260506173124 77 238 0.0 3.0 0.00 0.00 0.00 28 1009.2
20260506171603 77 242 0.0 4.0 0.00 0.00 0.00 30 1009.4
20260506170057 78 249 0.0 6.0 0.00 0.00 0.00 29 1009.4
20260506164602 77 239 1.0 7.0 0.00 0.00 0.00 30 1009.5
20260506163107 78 56 0.0 6.0 0.00 0.00 0.00 27 1009.6
20260506161559 78 118 2.0 6.0 0.00 0.00 0.00 27 1009.7
20260506154547 78 203 0.0 3.0 0.00 0.00 0.00 29 1009.9
20260506153045 77 337 0.0 4.0 0.00 0.00 0.00 30 1010.1
20260506151546 76 20 0.0 2.0 0.00 0.00 0.00 32 1010.2
20260506150040 77 226 0.0 9.0 0.00 0.00 0.00 32 1010.5
20260506144533 77 256 1.0 5.0 0.00 0.00 0.00 31 1010.8
20260506143024 76 329 0.0 5.0 0.00 0.00 0.00 33 1010.9
20260506141507 76 236 0.0 3.0 0.00 0.00 0.00 33 1011.1
20260506140110 75 228 1.0 7.0 0.00 0.00 0.00 34 1011.2
20260506134620 76 205 1.0 6.0 0.00 0.00 0.00 32 1011.4
20260506133107 75 250 0.0 2.0 0.00 0.00 0.00 33 1011.6
20260506131613 74 75 0.0 2.0 0.00 0.00 0.00 34 1011.7
20260506130058 75 224 1.0 4.0 0.00 0.00 0.00 33 1011.8
20260506124611 74 103 0.0 2.0 0.00 0.00 0.00 34 1012.0
20260506123052 75 172 2.0 6.0 0.00 0.00 0.00 34 1012.2
20260506121545 74 233 0.0 4.0 0.00 0.00 0.00 34 1012.2
20260506120042 73 267 1.0 5.0 0.00 0.00 0.00 34 1012.4
20260506114546 73 170 1.0 4.0 0.00 0.00 0.00 33 1012.5
20260506113037 73 102 0.0 1.0 0.00 0.00 0.00 37 1012.5
20260506111503 72 120 0.0 1.0 0.00 0.00 0.00 39 1012.6
20260506110121 71 121 0.0 5.0 0.00 0.00 0.00 40 1012.7
20260506104501 70 117 0.0 3.0 0.00 0.00 0.00 43 1012.9
20260506103111 69 162 0.0 2.0 0.00 0.00 0.00 46 1013.0
20260506101603 67 100 0.0 1.0 0.00 0.00 0.00 48 1013.1
20260506100105 67 85 0.0 1.0 0.00 0.00 0.00 50 1013.1
20260506094558 66 7 0.0 1.0 0.00 0.00 0.00 51 1013.2
20260506093056 65 93 0.0 1.0 0.00 0.00 0.00 52 1013.2
20260506091544 65 39 0.0 3.0 0.00 0.00 0.00 52 1013.2
20260506090034 64 40 0.0 5.0 0.00 0.00 0.00 54 1013.1
20260506084505 63 127 0.0 5.0 0.00 0.00 0.00 57 1013.3
20260506083126 63 49 0.0 6.0 0.00 0.00 0.00 57 1013.3
20260506081613 62 68 2.0 4.0 0.00 0.00 0.00 58 1013.3
20260506080114 62 70 0.0 2.0 0.00 0.00 0.00 65 1013.4
20260506073110 61 75 0.0 1.0 0.00 0.00 0.00 73 1013.3
20260506071605 60 75 0.0 1.0 0.00 0.00 0.00 74 1013.3
20260506070124 61 75 0.0 0.0 0.00 0.00 0.00 73 1013.3
20260506061600 57 208 0.0 0.0 0.00 0.00 0.00 78 1013.1
20260506044542 55 208 0.0 1.0 0.00 0.00 0.00 82 1012.9
20260506043013 55 208 0.0 1.0 0.00 0.00 0.00 84 1012.8
20260506041538 55 208 0.0 1.0 0.00 0.00 0.00 83 1012.8
20260506040002 55 210 0.0 0.0 0.00 0.00 0.00 84 1013.0
20260506034619 55 210 0.0 0.0 0.00 0.00 0.00 83 1013.2
20260506033109 56 210 0.0 0.0 0.00 0.00 0.00 82 1013.2
20260506031606 56 209 0.0 0.0 0.00 0.00 0.00 80 1013.2
20260506024607 57 210 0.0 1.0 0.00 0.00 0.00 80 1013.1
20260506023051 57 210 0.0 1.0 0.00 0.00 0.00 80 1013.2
20260506021550 57 248 0.0 1.0 0.00 0.00 0.00 81 1013.2
20260506020105 57 246 0.0 1.0 0.00 0.00 0.00 81 1013.3
20260506014601 57 204 0.0 1.0 0.00 0.00 0.00 81 1013.3
20260506013012 58 195 0.0 1.0 0.00 0.00 0.00 80 1013.5